[[[{"header":{"parameterUnit":"kt","parameterCategory":2,"dx":1,"dy":1,"la1":30.253999710083008,"la2":30.299108505249023,"lo1":-89.0895004272461,"lo2":-89.04439544677734,"nx":28,"ny":28,"refTime":"2022-10-26T21:00:00:Z","depth":0,"parameterNumber":1,"parameterNumberName":"U-component_of_WINDS"},"data":[-7.4742,-7.4845,-7.4822,-7.4928,-7.4924,-7.4993,-7.5009,-7.5028,-7.5037,-7.5115,-7.5155,-7.5141,-7.5139,-7.5181,-7.5224,-7.5216,-7.5236,-7.529,-7.5272,-7.5049,-7.5017,-7.4986,-7.4959,-7.5295,-7.5296,-7.5506,-7.5508,-7.551,-7.4583,-7.4581,-7.463,-7.4661,-7.4703,-7.4636,-7.4655,-7.4694,-7.4756,-7.4768,-7.4806,-7.4872,-7.4921,-7.49,-7.4943,-7.499,-7.496,-7.5003,-7.4999,-7.5,-7.4761,-7.4734,-7.5027,-7.5027,-7.5027,-7.5026,-7.5026,-7.5026,-7.4287,-7.435,-7.4354,-7.4406,-7.4415,-7.4436,-7.4491,-7.4471,-7.4518,-7.456,-7.452,-7.459,-7.4596,-7.4634,-7.464,-7.4694,-7.4641,-7.468,-7.469,-7.47,-7.4716,-7.4417,-7.47,-7.4699,-7.4698,-7.4697,-7.4696,0,-7.4062,-7.4038,-7.4082,-7.412,-7.4157,-7.4184,-7.4203,-7.4237,-7.4173,-7.4215,-7.4272,-7.4301,-7.4358,-7.4409,-7.4442,-7.444,-7.4373,-7.4363,-7.439,-7.4411,-7.4426,-7.4419,-7.4031,-7.4355,-7.4352,-7.435,-7.4348,-7.4347,-7.3762,-7.3838,-7.3829,-7.3864,-7.3868,-7.3925,-7.3953,-7.3891,-7.3924,-7.3939,-7.3997,-7.4047,-7.4083,-7.4179,-7.4153,-7.4195,-7.4163,-7.429,-7.4169,-7.4186,-7.4166,-7.4162,-7.4169,-7.4315,-7.4319,-7.4322,-7.4325,0,-7.3595,-7.3553,-7.3662,-7.3644,-7.3642,-7.3725,-7.3709,-7.3769,-7.3741,-7.3819,-7.3834,-7.3792,-7.3849,-7.3801,-7.3857,-7.3831,-7.3966,-7.3933,-7.3964,-7.3955,-7.4064,-7.4055,-7.4424,-7.447,-7.4121,-7.4124,-7.4127,0,-7.3322,-7.3424,-7.3354,-7.3419,-7.353,-7.3464,-7.3575,-7.3562,-7.3564,-7.3625,-7.3541,-7.3599,-7.3529,-7.3581,-7.3543,-7.3644,-7.3654,-7.364,-7.3629,-7.3648,-7.365,-7.3664,-7.3648,-7.3599,-7.3597,-7.3596,-7.3594,0,-7.3066,-7.3147,-7.3252,-7.3263,-7.3254,-7.3305,-7.3303,-7.3304,-7.3333,-7.3361,-7.3379,-7.3417,-7.3438,-7.3469,-7.3419,-7.3339,-7.3542,-7.3421,-7.3528,-7.3529,-7.3575,-7.3573,-7.3912,-7.3592,-7.3591,-7.3591,-7.359,0,-7.2838,-7.2869,-7.3028,-7.3017,-7.3041,-7.311,-7.3143,-7.3191,-7.3198,-7.3178,-7.32,-7.3137,-7.3221,-7.3105,-7.3221,-7.3131,-7.3157,-7.315,-7.3157,-7.3161,-7.3033,-7.3231,-7.3559,-7.3591,-7.3166,-7.3163,-7.316,0,-7.2557,-7.2705,-7.2649,-7.2801,-7.2862,-7.2763,-7.2838,-7.2847,-7.2825,-7.2874,-7.285,-7.2906,-7.2809,-7.282,-7.2883,-7.2861,-7.2978,-7.2843,-7.2915,-7.2919,-7.2917,-7.3218,-7.3278,-7.3492,-7.3114,-7.3119,-7.3122,0,-7.2333,-7.232,-7.2351,-7.2361,-7.2361,-7.2411,-7.2498,-7.2538,-7.2574,-7.2592,-7.2663,-7.274,-7.267,-7.2689,-7.2641,-7.271,-7.2897,-7.2625,-7.2624,-7.2676,-7.3086,-7.3144,-7.318,-7.285,-7.2855,-7.286,-7.3086,0,-7.2001,-7.2068,-7.2149,-7.2173,-7.2204,-7.2296,-7.2244,-7.2283,-7.2234,-7.2209,-7.2312,-7.2305,-7.2346,-7.2373,-7.2326,-7.2498,-7.2461,-7.2386,-7.2269,-7.2466,-7.254,-7.2569,-7.2164,-7.216,-7.2157,-7.2155,0,0,-7.1742,-7.1837,-7.1771,-7.1852,-7.1874,-7.1768,-7.1871,-7.188,-7.1901,-7.1919,-7.1853,-7.1961,-7.1958,-7.2089,-7.2146,-7.2162,-7.2188,-7.2121,-7.2373,-7.2397,-7.242,-7.2499,-7.2531,-7.2149,-7.2148,-7.2147,-7.2146,0,-7.1609,-7.1609,-7.1711,-7.1717,-7.1723,-7.1691,-7.1716,-7.1703,-7.1691,-7.1791,-7.1702,-7.1757,-7.1844,-7.1854,-7.187,-7.2104,-7.2033,-7.212,-7.2264,-7.2343,-7.2371,-7.2397,-7.2481,-7.2512,-7.2138,-7.2138,-7.2139,0,-7.138,-7.1371,-7.1414,-7.1458,-7.1461,-7.1526,-7.1391,-7.1465,-7.1512,-7.1391,-7.1492,-7.1481,-7.1488,-7.1618,-7.1674,-7.1616,-7.1896,-7.1797,-7.1816,-7.1821,-7.1894,-7.1929,-7.1959,-7.1553,-7.1551,-7.155,0,0,-7.1272,-7.1333,-7.1303,-7.1425,-7.1433,-7.1386,-7.1415,-7.1368,-7.1376,-7.138,-7.1364,-7.1376,-7.1425,-7.146,-7.1504,-7.1653,-7.165,-7.1727,-7.1755,-7.1778,-7.1795,-7.1874,-7.1909,-7.1543,-7.1543,-7.1542,0,0,-7.122,-7.1189,-7.1138,-7.1273,-7.1284,-7.1262,-7.1339,-7.1275,-7.1309,-7.1292,-7.1216,-7.1216,-7.1336,-7.1329,-7.1243,-7.1461,-7.1346,-7.1366,-7.1461,-7.1495,-7.1523,-7.1522,-7.1103,0,0,0,0,0,-7.1057,-7.1193,-7.1147,-7.1161,-7.1216,-7.1288,-7.1294,-7.1235,-7.1155,-7.1217,-7.1194,-7.1115,-7.1267,-7.1189,-7.1205,-7.1301,-7.1454,-7.147,-7.1485,-7.1643,-7.1679,-7.171,0,0,0,0,0,0,-7.1062,-7.108,-7.1143,-7.1127,-7.1138,-7.1282,-7.1134,-7.1121,-7.1147,-7.113,-7.1123,-7.1115,-7.1066,-7.1177,-7.1192,-7.1285,-7.1097,-7.146,-7.1474,-7.1486,-7.1655,-7.1685,-7.171,0,0,0,0,0,-7.1066,-7.108,-7.1183,-7.1124,-7.1135,-7.1088,-7.1128,-7.1116,-7.1135,-7.1098,-7.1088,-7.1088,-7.107,-7.1079,-7.1186,-7.1279,-7.1086,-7.1092,-7.1469,-7.148,-7.1489,-7.167,0,0,0,0,0,0,-7.1068,-7.107,-7.1184,-7.1185,-7.1068,-7.1079,-7.1078,-7.1113,-7.11,-7.1092,-7.1059,-7.1047,-7.1075,-7.108,-7.1088,-7.1281,-7.1078,-7.1084,-7.1087,-7.1477,-7.1485,-7.1493,0,0,0,0,0,0,-7.1062,-7.1072,-7.1184,-7.1116,-7.1109,-7.1071,-7.107,-7.1152,-7.1101,-7.1061,-7.105,-7.1054,-7.1064,-7.1083,-7.1088,-7.1218,-7.1071,-7.1076,-7.108,-7.1083,-7.1484,-7.149,0,0,0,0,0,0,-7.1065,-7.1073,-7.1116,-7.111,-7.1103,-7.1108,-7.1142,-7.1201,-7.1043,-7.1063,-7.1027,-7.102,-7.1069,-7.1072,-7.1088,-7.1217,-7.1218,-7.1071,-7.1075,-7.1078,-7.1079,0,0,0,0,0,0,0,-7.1067,-7.1025,-7.1179,-7.1105,-7.1098,-7.1193,-7.1193,-7.1193,-7.1042,-7.1035,-7.1029,-7.1023,-7.1038,-7.1044,-7.1051,-7.1217,0,0,-7.107,-7.1073,0,0,0,0,0,0,0,0,-7.102,-7.1024,-7.1179,-7.1179,-7.1179,-7.1193,-7.1193,-7.1193,-7.1041,-7.1035,-7.103,-7.1026,-7.104,-7.1045,-7.105,0,0,0,0,0,0,0,0,0,0,0,0,0,0,0,-7.1179,-7.1179,0,-7.1193,-7.1193,-7.1193,-7.104,-7.1036,-7.1031,-7.1028,-7.1041,-7.1045,-7.105,0,0,0,0,0,0,0,0,0,0,0,0,0,0,0,0,0,0,0,0,0,0,0,0,0,0,0,0,0,0,0,0,0,0,0,0,0,0,0,0,0,0,0,0,0,0,0,0,0,0,0,0,0,0,0,0,0,0,0,0,0,0,0,0,0,0,0,0,0]}],[{"header":{"parameterUnit":"kt","parameterCategory":2,"dx":1,"dy":1,"la1":30.253999710083008,"la2":30.299108505249023,"lo1":-89.0895004272461,"lo2":-89.04439544677734,"nx":28,"ny":28,"refTime":"2022-10-26T21:00:00:Z","depth":0,"parameterNumber":2,"parameterNumberName":"V-component_of_WINDS"},"data":[-3.4028,-3.4051,-3.4047,-3.4071,-3.4072,-3.4088,-3.4092,-3.4097,-3.4101,-3.4119,-3.4129,-3.4127,-3.4129,-3.414,-3.415,-3.4149,-3.4154,-3.4163,-3.4161,-3.412,-3.4114,-3.4108,-3.4102,-3.4165,-3.4165,-3.4204,-3.4204,-3.4205,-3.3994,-3.3995,-3.4008,-3.4017,-3.4027,-3.4015,-3.4021,-3.403,-3.4045,-3.405,-3.406,-3.4075,-3.4088,-3.4087,-3.4098,-3.4108,-3.4103,-3.4111,-3.411,-3.411,-3.4066,-3.406,-3.4114,-3.4114,-3.4114,-3.4114,-3.4114,-3.4114,-3.3932,-3.3947,-3.3951,-3.3964,-3.3968,-3.3974,-3.3987,-3.3986,-3.3998,-3.401,-3.4004,-3.402,-3.4025,-3.4037,-3.4041,-3.4053,-3.4044,-3.4052,-3.4054,-3.4056,-3.4058,-3.4,-3.4055,-3.4055,-3.4055,-3.4055,-3.4054,0,-3.3886,-3.3882,-3.3894,-3.3905,-3.3915,-3.3923,-3.3931,-3.3939,-3.393,-3.3941,-3.3955,-3.3964,-3.3979,-3.3993,-3.4003,-3.4005,-3.3994,-3.3993,-3.3999,-3.4002,-3.4002,-3.4001,-3.3929,-3.3992,-3.3992,-3.3991,-3.3991,-3.3991,-3.3822,-3.384,-3.3844,-3.3853,-3.3856,-3.3871,-3.3879,-3.3871,-3.388,-3.3888,-3.3901,-3.3915,-3.3925,-3.395,-3.3949,-3.3961,-3.3956,-3.398,-3.3958,-3.3959,-3.3955,-3.3954,-3.3956,-3.3985,-3.3986,-3.3986,-3.3987,0,-3.3786,-3.3782,-3.3809,-3.3812,-3.3813,-3.3832,-3.3833,-3.3848,-3.3846,-3.3865,-3.3869,-3.3866,-3.3881,-3.3876,-3.3893,-3.389,-3.3919,-3.3914,-3.3917,-3.3916,-3.3936,-3.3934,-3.4006,-3.4015,-3.3951,-3.3951,-3.3952,0,-3.3731,-3.3755,-3.3747,-3.3763,-3.3789,-3.3781,-3.3807,-3.3808,-3.3813,-3.3828,-3.3815,-3.383,-3.3822,-3.3835,-3.3831,-3.3855,-3.3858,-3.3857,-3.3856,-3.3858,-3.3858,-3.3863,-3.386,-3.3853,-3.3852,-3.3852,-3.3852,0,-3.3675,-3.3701,-3.3727,-3.3732,-3.3738,-3.375,-3.3753,-3.3759,-3.3768,-3.3778,-3.3784,-3.3797,-3.3804,-3.3813,-3.3808,-3.3793,-3.3837,-3.3815,-3.3836,-3.3836,-3.3846,-3.3846,-3.391,-3.3851,-3.3851,-3.3851,-3.3851,0,-3.363,-3.3641,-3.3681,-3.3685,-3.3692,-3.371,-3.3722,-3.3737,-3.3744,-3.3742,-3.3751,-3.3742,-3.3763,-3.3741,-3.377,-3.3751,-3.3759,-3.376,-3.3761,-3.3763,-3.3739,-3.3776,-3.3838,-3.3844,-3.3764,-3.3763,-3.3763,0,-3.3567,-3.3606,-3.36,-3.3638,-3.3656,-3.364,-3.366,-3.3667,-3.3667,-3.3681,-3.3681,-3.3698,-3.3681,-3.3686,-3.3701,-3.3701,-3.3725,-3.3698,-3.3718,-3.3719,-3.3716,-3.3773,-3.3783,-3.3825,-3.3753,-3.3754,-3.3755,0,-3.3518,-3.3527,-3.3534,-3.354,-3.3549,-3.3565,-3.3587,-3.3603,-3.3613,-3.3623,-3.3641,-3.3666,-3.3653,-3.3662,-3.3657,-3.3673,-3.3709,-3.3658,-3.3658,-3.3667,-3.3749,-3.3758,-3.3765,-3.3702,-3.3703,-3.3704,-3.3748,0,-3.3449,-3.3469,-3.3489,-3.3504,-3.3516,-3.354,-3.3537,-3.3549,-3.3543,-3.3543,-3.357,-3.3577,-3.3593,-3.3601,-3.3596,-3.3633,-3.3626,-3.3614,-3.3593,-3.363,-3.3645,-3.3651,-3.3571,-3.3571,-3.357,-3.357,0,0,-3.3389,-3.3419,-3.3413,-3.3436,-3.3445,-3.343,-3.3457,-3.3464,-3.348,-3.3486,-3.3474,-3.351,-3.3516,-3.355,-3.3562,-3.3569,-3.3575,-3.3563,-3.3613,-3.3617,-3.3622,-3.3637,-3.3644,-3.3569,-3.3569,-3.3569,-3.3568,0,-3.3364,-3.3371,-3.3398,-3.3406,-3.3417,-3.3416,-3.3422,-3.3431,-3.3433,-3.346,-3.3448,-3.3464,-3.3495,-3.3502,-3.351,-3.3558,-3.3548,-3.3563,-3.359,-3.3607,-3.3613,-3.3618,-3.3634,-3.364,-3.3567,-3.3567,-3.3567,0,-3.3315,-3.3321,-3.3335,-3.3357,-3.3364,-3.3384,-3.3361,-3.3383,-3.3397,-3.3381,-3.3409,-3.3413,-3.3423,-3.3457,-3.3471,-3.3461,-3.3524,-3.3504,-3.3508,-3.3509,-3.3526,-3.3533,-3.3539,-3.3461,-3.3461,-3.346,0,0,-3.3293,-3.3313,-3.3319,-3.3351,-3.3357,-3.3357,-3.3368,-3.3363,-3.3374,-3.3378,-3.3383,-3.3393,-3.341,-3.3421,-3.3438,-3.3475,-3.3476,-3.3491,-3.3496,-3.35,-3.3504,-3.3522,-3.3529,-3.3459,-3.3459,-3.3459,0,0,-3.3283,-3.3291,-3.3284,-3.3321,-3.3332,-3.334,-3.3359,-3.335,-3.3365,-3.3362,-3.3356,-3.3359,-3.339,-3.3394,-3.3376,-3.343,-3.341,-3.3414,-3.3426,-3.3433,-3.3438,-3.3436,-3.3354,0,0,0,0,0,-3.3257,-3.329,-3.3283,-3.3289,-3.3318,-3.3343,-3.3347,-3.3343,-3.3328,-3.3343,-3.3345,-3.3335,-3.3383,-3.3367,-3.3372,-3.3393,-3.3442,-3.3445,-3.3448,-3.3472,-3.3479,-3.3485,0,0,0,0,0,0,-3.3259,-3.3266,-3.3282,-3.3292,-3.3298,-3.3342,-3.3316,-3.3315,-3.3326,-3.3324,-3.3334,-3.3335,-3.3332,-3.3363,-3.3369,-3.3388,-3.3352,-3.3443,-3.3445,-3.3448,-3.3475,-3.348,-3.3485,0,0,0,0,0,-3.3261,-3.3267,-3.3315,-3.3291,-3.3297,-3.33,-3.3314,-3.3314,-3.3322,-3.3327,-3.3327,-3.3318,-3.3333,-3.3337,-3.3367,-3.3386,-3.3349,-3.3351,-3.3444,-3.3447,-3.3448,-3.3477,0,0,0,0,0,0,-3.3262,-3.3266,-3.3316,-3.3317,-3.3279,-3.3297,-3.33,-3.3313,-3.3325,-3.3325,-3.331,-3.3308,-3.3334,-3.3337,-3.334,-3.3385,-3.3346,-3.3348,-3.3349,-3.3446,-3.3448,-3.3449,0,0,0,0,0,0,-3.3263,-3.3268,-3.3316,-3.3301,-3.3301,-3.3295,-3.3297,-3.3322,-3.3325,-3.3307,-3.3306,-3.3309,-3.3328,-3.3337,-3.3339,-3.3378,-3.3343,-3.3345,-3.3347,-3.3348,-3.3447,-3.3449,0,0,0,0,0,0,-3.3265,-3.3269,-3.3301,-3.33,-3.33,-3.3317,-3.3317,-3.3347,-3.3312,-3.3307,-3.3309,-3.3307,-3.3329,-3.3331,-3.3339,-3.3377,-3.3378,-3.3343,-3.3345,-3.3346,-3.3346,0,0,0,0,0,0,0,-3.3267,-3.3241,-3.3307,-3.33,-3.33,-3.3331,-3.3332,-3.3332,-3.3312,-3.331,-3.3309,-3.3308,-3.3332,-3.3334,-3.3337,-3.3376,0,0,-3.3343,-3.3344,0,0,0,0,0,0,0,0,-3.3239,-3.324,-3.3307,-3.3307,-3.3307,-3.3331,-3.3332,-3.3332,-3.3311,-3.331,-3.3309,-3.3308,-3.3333,-3.3335,-3.3336,0,0,0,0,0,0,0,0,0,0,0,0,0,0,0,-3.3307,-3.3307,0,-3.3331,-3.3332,-3.3332,-3.3311,-3.331,-3.331,-3.3309,-3.3333,-3.3335,-3.3336,0,0,0,0,0,0,0,0,0,0,0,0,0,0,0,0,0,0,0,0,0,0,0,0,0,0,0,0,0,0,0,0,0,0,0,0,0,0,0,0,0,0,0,0,0,0,0,0,0,0,0,0,0,0,0,0,0,0,0,0,0,0,0,0,0,0,0,0,0]}]]]